Flag for USA

Past Weather in 33°51'30"N, 118°14'05"W, USA — Yesterday and Last 2 Weeks

Now
70 °F

Clear.


Feels Like: 75 °F
Forecast: 89 / 68 °F
Wind: No wind

Location: Los Angeles / USC Campus Downtown

Current Time: Jul 12, 2020 at 2:25:43 am

Latest Report: Jul 12, 2020 at 1:52 am


Visibility: 10 mi

Pressure: 29.92 "Hg

Humidity: 66%

Dew Point: 58 °F

Location of 33°51'30"N, 118°14'05"WLocation

Past Weather in 33°51'30"N, 118°14'05"W — Graph

°F

33°51'30"N, 118°14'05"W Temperature Yesterday

Maximum temperature yesterday: 89 °F (at 2:52 pm)
Minimum temperature yesterday: 65 °F (at 1:52 am)
Average temperature yesterday: 76 °F

High & Low Weather Summary for the Past Weeks

 TemperatureHumidityPressure
High89 °F (Jul 5, 11:52 am)91% (Jul 6, 6:35 am)30.00 "Hg (Jul 6, 6:35 am)
Low61 °F (Jun 30, 4:52 am)28% (Jul 11, 4:52 pm)29.76 "Hg (Jun 28, 5:52 pm)
Average71 °F66%29.89 "Hg
* Reported Jun 27 12:52 am — Jul 12 12:52 am, 33°51'30"N, 118°14'05"W. Weather by CustomWeather, © 2020

Note: Actual official high and low records may vary slightly from our data, if they occured in-between our weather recording intervals... More about our weather records

33°51'30"N, 118°14'05"W Weather History for the Previous 24 Hours

Scroll right to see more
 ConditionsComfort  
Time TempWeatherWind HumidityBarometerVisibility
12:52 am
Sun, Jul 12
71 °FClear.No wind63%29.94 "Hg10 mi
11:52 pm
Sat, Jul 11
71 °FClear.No wind63%29.94 "Hg10 mi
10:52 pm71 °FClear.No wind63%29.95 "Hg10 mi
9:52 pm71 °FClear.No wind68%29.93 "Hg10 mi
8:52 pm72 °FClear.3 mph66%29.92 "Hg10 mi
7:52 pm75 °FSunny.No wind58%29.90 "Hg10 mi
6:52 pm80 °FSunny.5 mph44%29.90 "Hg10 mi
5:52 pm82 °FSunny.N/A38%29.89 "Hg10 mi
4:52 pm85 °FSunny.5 mph28%29.90 "Hg10 mi
3:52 pm85 °FSunny.8 mph32%29.92 "Hg10 mi
2:52 pm89 °FSunny.8 mph29%29.92 "Hg10 mi
1:52 pm86 °FSunny.5 mph37%29.94 "Hg10 mi
12:52 pm88 °FSunny.3 mph38%29.96 "Hg10 mi
11:52 am88 °FSunny.No wind36%29.97 "Hg10 mi
10:52 am87 °FSunny.No wind35%29.97 "Hg10 mi
9:52 am82 °FSunny.3 mph49%29.98 "Hg10 mi
8:52 am79 °FSunny.No wind56%29.99 "Hg9 mi
7:52 am72 °FSunny.No wind73%30.00 "Hg8 mi
6:52 am67 °FSunny.No wind81%29.98 "Hg7 mi
5:52 am65 °FSunny.No wind85%29.96 "Hg7 mi
4:52 am65 °FClear.No wind85%29.96 "Hg8 mi
3:52 am65 °FClear.No wind85%29.96 "Hg7 mi
2:52 am65 °FClear.No wind87%29.96 "Hg7 mi
Weather by CustomWeather, © 2020

See weather overview